Location: Newark
(45.8667°N, 9.7333°E)
Time: 11:33:53
(UTC+00:00)

Vanguard 3 - Pass Details

Date: 02 February 2020
Orbit: 508 x 3263 km, 33.3° (Epoch: 22 February)

Event Time Altitude Azimuth Distance (km) Brightness Sun altitude
Rises 16:54:58 0° 258° (WSW) 6,613 14.4 -5.3°
Reaches altitude 10° 16:59:08 10° 254° (WSW) 5,830 13.4 -6.0°
Maximum altitude 17:17:30 55° 184° (S) 3,670 10.6 -9.1°
Drops below altitude 10° 17:34:40 10° 114° (ESE) 5,484 10.9 -12.0°
Enters shadow 17:37:02 - 111° (ESE) 5,937 11.0 -12.4°
Sets 17:38:27 0° 110° (ESE) 6,215 - -12.6°
